Location: Easter Hill Village
(37.9235°N, 122.3444°W)
Time: 11:49:18
(UTC+00:00)

MSX - Pass Details

Date: 16 September 2019
Orbit: 894 x 907 km, 98.7° (Epoch: 20 October)

Event Time Altitude Azimuth Distance (km) Brightness Sun altitude
Rises 12:07:51 0° 15° (NNE) 3,529 7.4 -20.8°
Reaches altitude 10° 12:10:17 10° 17° (NNE) 2,583 6.7 -20.4°
Maximum altitude 12:16:02 75° 103° (ESE) 930 4.0 -19.3°
Drops below altitude 10° 12:21:44 10° 188° (S) 2,559 5.9 -18.2°
Enters shadow 12:23:51 - 190° (S) 3,380 6.6 -17.8°
